Location: Le Rocchette
(44.3500°N, 7.8333°E)
Time: 20:38:57
(UTC+00:00)

Cosmos 2151 - Pass Details

Date: 17 November 2019
Orbit: 581 x 602 km, 82.5° (Epoch: 09 December)

Event Time Altitude Azimuth Distance (km) Brightness Sun altitude
Rises 05:00:56 0° 204° (SSW) 2,838 6.3 -15.3°
Reaches altitude 10° 05:03:13 10° 211° (SSW) 1,941 5.4 -14.9°
Maximum altitude 05:07:19 43° 283° (WNW) 852 3.3 -14.2°
Drops below altitude 10° 05:11:27 10° 356° (N) 1,955 5.4 -13.5°
Sets 05:13:46 0° 3° (N) 2,861 6.4 -13.1°
